Погода Реболы

Погода Реболы : погода сейчас, прогноз погоды и архив. Всё, что Вы хотите узнать о погоде Реболы!

Поиск расширенной информации на нашем сайте:

Другие новости

Новости СМИ2

Главная страница сайта

Новости сайта

03.07.2017

Напоминаем, что на нашем специализированном сайте Метеоцентр.Азия вы можете получить высокодетализированные автоматические прогнозы погоды по пунктам России, СНГ и мира в авиационном формате (включающие направление и скорость ветра, видимость, явления погоды, количество и форму облачности, нижнюю и верхнюю границу облачности).

Рекомендуем: помещения в аренду тут снять офис у метро Баррикадная на выгодных условиях

Погода Реболы - сегодня

Время (UTC), дата Ветер
(°,м/с) 
Видим.   Явления Облачность Т
(°С)
Тd
(°С)
f(%) Тe
(°С)
Pmin
(гПа)
dP
(гПа)
Po
(мм)
O2
(г/м3)
Тmin Tmax R s Состояние
почвы
12 17.07.18 090 (В) 20000 м    3/0 средняя 
[Ac trans]
+28.9 +10.9 33 +31  1019.2  749  271           
15 17.07.18 110 (В) 20000 м    ясно 
+28.1 +10.5 33 +30  1018.7  -0.6  749  272           
18 17.07.18 070 (В) 20000 м    ясно 
+25.3 +11.3 42 +28  1019.4  0.5  749  274    +29.3       
21 17.07.18 100 (В) 29000 м    ясно 
+20.6 +11.7 57 +24  1020.6  0.9  750  279           
00 18.07.18 100 (В) 27000 м    ясно 
+17.4 +10.9 66 +20  1021.9  750  282           
09 18.07.18 100 (В) 20000 м    ясно 
+25 +11.5 43 +28  1020.8  -0.5  750  275           
12 18.07.18 100 (В) 20000 м    ясно 
+26.9 +9.1 33 +27  1019.6  -1.1  749  273           
15 18.07.18 090 (В) 20000 м    ясно 
+26.9 +9.2 33 +27  1018.4  -1.1  748  273           
18 18.07.18 070 (В) 20000 м    ясно 
+23.9 +10 41 +25  1018.5  -0.2  748  275    +27.2       
21 18.07.18 060 (СВ) 27000 м    ясно 
+19.8 +11.1 57 +24  1019.2  0.4  748  279           
00 19.07.18 080 (В) 28000 м    ясно 
+16.5 +11.3 71 +20  1020.1  0.6  749  282           
09 19.07.18 090 (В) 50000 м    ясно 
+25.6 +8.1 33 +26  1018.6  -0.5  748  274           
12 19.07.18 090 (В) 50000 м    ясно 
+27.4 +8.9 31 +27  1017.8  -0.6  748  272           
15 19.07.18 090 (В) 50000 м    ясно 
+27.8 +9.5 32 +28  1016.5  -1.3  747  271           
18 19.07.18 090 (В) 20000 м    ясно 
+24.9 +11.3 43 +28  1016.6  747  274    +28.1       
21 19.07.18 080 (В) 28000 м    ясно 
+21.3 +12.6 58 +26  1017.3  0.4  747  277           
00 20.07.18 090 (В) 28000 м    ясно 
+18.7 +13.4 71 +26  1017.4  0.1  747  279           
09 20.07.18 100 (В) 20000 м    3/0 средняя 
[Ac trans]
+27 +11.8 39 +31  1015.1  -0.7  746  271           
12 20.07.18 100 (В) 20000 м    3/0 средняя 
[Ac trans]
+28.5 +11.9 36 +32  1013.5  -1.4  745  270           
15 20.07.18 100 (В) 20000 м    4/0 средняя, верхняя 
[Ac trans|Ci fib]
+27.8 +13.4 41 +34  1012.2  -1.3  744  269           
03 21.07.18 110 (В) 21000 м  {ливн. осадки}  10/10 570 м кучево-дожд. 
[Cb cap]
+18.5 +17.1 92 +32  1011.5  -0.9  743  276  +17.9       
09 21.07.18 130 (ЮВ) 27000 м    9/8 600 м кучево-дожд., средняя 
[Cb cap|Ac trans]
+22.7 +17.5 72 +36  1009.7  -0.7  742  272           
21 21.07.18 140 (ЮВ) 25000 м    4/3 300 м средняя 
[Sc|Ac trans]
+20.9 +16.2 74 +32  1007.5  -0.4  740  273           
15 22.07.18 230 (ЮЗ) 20000 м    6/3 300 м средняя, верхняя 
[Sc|Ac trans|Ci fib]
+25.5 +14.7 51 +34  1007.2  0.5  740  270         
21 22.07.18 190 (Ю) 26000 м    3/0 средняя 
[Ac trans]
+20.3 +15.8 75 +31  1009.6  1.3  742  275           
Время (UTC), дата Ветер
(°,м/с) 
Видим.   Явления Облачность Т
(°С)
Тd
(°С)
f(%) Тe
(°С)
Pmin
(гПа)
dP
(гПа)
Po
(мм)
O2
(г/м3)
Тmin Tmax R s Состояние
почвы

Для получения пояснительной информации подведите курсор к названию столбца.

ПОГОДА Реболы - архив

Всё, что Вы хотите узнать о погоде Реболы - удобно и подробно!

Выберите нужную дату (начиная с 1 января 2015* года) и нажмите кнопку "Найти".
Будут отображены архивные сводки погоды по пункту Реболы, начиная с указанной даты.


Отображать данные в формате CSV (для использования в таблицах Excel)


Внимание! Наш архив погоды предназначен исключительно для личного некоммерческого использования в познавательных целях. Если Вам необходимы официальные справки о состоянии погоды (для производственных, юридических, коммерческих и т.п. целей), обращайтесь в органы Росгидромета.

*Примечание: данная дата относится к архиву по метеостанциям СССР (Россия, СНГ, Балтия).
Архив по метеостанциям Зарубежной Европы и Азии (кроме Китая) хранится 10 дней, по другим регионам земного шара (Китай, Африка, Америка, Австралия, Океания) - 1 день.

Реболы - район местоположения метеостанции


Название, широта, долгота, высота метеостанции:
Реболы 63.8°ш. 30.8°д. 182 м над ур. моря [Российская Федерация]

Дополнительная информация

В oтличие oт бoльшинства пoгoдных сайтoв мы публикуем пoдрoбную метеoинфoрмацию в детальнoм прoфессиoнальнoм фoрмате.

Характеристики температуры и влажнoсти вoздуха измеряются на высoте 2 м в тени вдали oт зданий и деревьев.
Скoрoсть ветра измеряется на высoте 10 м (на урoвне рoста челoвека скoрoсть ветра ниже в 1.5-2 раза). Если метеoстанция нахoдится в гoрoде или в лесу, тo скoрoсть ветра занижена на 2-4 м/с пo сравнению с oткрытым местoм. Скoрoсть ветра над акватoриями крупных рек и oзёр, а также на вершинах хoлмoв на 2-5 м/с выше, чем в oбычных услoвиях.
Атмoсфернoе давление в разных тoчках местнoсти мoжет значительнo oтличаться oт давления на метеoстанции, в зависимoсти oт услoвий рельефа (при пoдъёме на 10 м давление пoнижается примернo на 1 мм рт.ст.).